START_TIME,STEP,MOV.,M34,t_acc.,L5,t_acc.,L18,t_acc.,L14,t_acc.
1979-03-09 06:00:22.760 ,5,1,0.,12.0,0.,12.0,0.,12.0,0.,12.0
1979-03-09 06:00:34.760 ,5,1,2.,12.0,0.,12.0,0.,12.0,0.,12.0
1979-03-09 06:00:46.760 ,4,1,1.,12.0,0.,12.0,0.,12.0,0.,12.0
1979-03-09 06:00:58.760 ,4,1,3.,12.0,0.,12.0,0.,12.0,0.,12.0
1979-03-09 06:01:10.760 ,3,1,2.,12.0,0.,12.0,0.,12.0,0.,12.0
1979-03-09 06:01:22.760 ,3,1,1.,12.0,0.,12.0,0.,12.0,0.,12.0
1979-03-09 06:01:34.760 ,2,1,0.,12.0,0.,12.0,0.,12.0,0.,12.0
1979-03-09 06:01:46.760 ,2,1,1.,12.0,1.,12.0,0.,12.0,0.,12.0
1979-03-09 06:01:58.760 ,1,1,1.,12.0,0.,12.0,0.,12.0,0.,12.0
1979-03-09 06:02:10.760 ,1,1,0.,12.0,0.,12.0,0.,12.0,0.,12.0
1979-03-09 06:02:22.760 ,0,1,1.,12.0,0.,12.0,0.,12.0,0.,12.0
1979-03-09 06:02:34.760 ,0,1,1.,12.0,0.,12.0,0.,12.0,0.,12.0
1979-03-09 06:02:46.760 ,0,1,0.,12.0,0.,12.0,0.,12.0,0.,12.0
1979-03-09 06:02:58.760 ,0,1,0.,12.0,0.,12.0,0.,12.0,0.,12.0
1979-03-09 06:03:10.760 ,1,1,0.,12.0,0.,12.0,0.,12.0,0.,12.0
1979-03-09 06:03:22.760 ,1,1,0.,12.0,0.,12.0,0.,12.0,0.,12.0
1979-03-09 06:03:34.760 ,2,1,0.,12.0,0.,12.0,0.,12.0,0.,12.0
1979-03-09 06:03:46.760 ,2,1,2.,12.0,0.,12.0,0.,12.0,0.,12.0
1979-03-09 06:03:58.760 ,3,1,0.,12.0,0.,12.0,0.,12.0,0.,12.0
1979-03-09 06:04:10.760 ,3,1,2.,12.0,0.,12.0,0.,12.0,0.,12.0
1979-03-09 06:04:22.760 ,4,1,3.,12.0,1.,12.0,0.,12.0,0.,12.0
1979-03-09 06:04:34.760 ,4,1,6.,12.0,0.,12.0,0.,12.0,0.,12.0
1979-03-09 06:04:46.760 ,5,1,2.,12.0,0.,12.0,0.,12.0,0.,12.0
1979-03-09 06:04:58.760 ,5,1,4.,12.0,0.,12.0,0.,12.0,0.,12.0
1979-03-09 06:05:10.760 ,6,1,0.,12.0,0.,12.0,0.,12.0,0.,12.0
1979-03-09 06:05:22.760 ,6,1,2.,12.0,0.,12.0,0.,12.0,0.,12.0
1979-03-09 06:05:34.760 ,7,1,0.,12.0,0.,12.0,0.,12.0,0.,12.0
1979-03-09 06:05:46.760 ,7,1,0.,12.0,0.,12.0,0.,12.0,0.,12.0
1979-03-09 06:05:58.760 ,7,1,0.,12.0,0.,12.0,0.,12.0,0.,12.0
1979-03-09 06:06:10.760 ,7,1,0.,12.0,0.,12.0,0.,12.0,0.,12.0
1979-03-09 06:06:22.760 ,6,1,0.,12.0,0.,12.0,0.,12.0,0.,12.0
1979-03-09 06:06:34.760 ,6,1,0.,12.0,0.,12.0,0.,12.0,0.,12.0
1979-03-09 06:06:46.760 ,5,1,1.,12.0,0.,12.0,0.,12.0,0.,12.0
1979-03-09 06:06:58.760 ,5,1,0.,12.0,0.,12.0,0.,12.0,0.,12.0
1979-03-09 06:07:10.760 ,4,1,0.,12.0,0.,12.0,0.,12.0,0.,12.0
1979-03-09 06:07:22.760 ,4,1,1.,12.0,0.,12.0,0.,12.0,0.,12.0
1979-03-09 06:07:34.760 ,3,1,1.,12.0,0.,12.0,0.,12.0,0.,12.0
1979-03-09 06:07:46.760 ,3,1,3.,12.0,1.,12.0,0.,12.0,0.,12.0
1979-03-09 06:07:58.760 ,2,1,1.,12.0,0.,12.0,0.,12.0,0.,12.0
1979-03-09 06:08:10.760 ,2,1,3.,12.0,0.,12.0,0.,12.0,0.,12.0
1979-03-09 06:08:22.760 ,1,1,1.,12.0,0.,12.0,0.,12.0,0.,12.0
1979-03-09 06:08:34.760 ,1,1,0.,12.0,0.,12.0,0.,12.0,0.,12.0
1979-03-09 06:08:46.760 ,0,1,0.,12.0,0.,12.0,0.,12.0,0.,12.0
1979-03-09 06:08:58.760 ,0,1,0.,12.0,0.,12.0,0.,12.0,0.,12.0
1979-03-09 06:09:10.760 ,0,1,1.,12.0,0.,12.0,0.,12.0,0.,12.0
1979-03-09 06:09:22.760 ,0,1,0.,12.0,0.,12.0,0.,12.0,0.,12.0
1979-03-09 06:09:34.760 ,1,1,0.,12.0,0.,12.0,0.,12.0,0.,12.0
1979-03-09 06:09:46.760 ,1,1,1.,12.0,0.,12.0,0.,12.0,0.,12.0
1979-03-09 06:09:58.760 ,2,1,0.,12.0,0.,12.0,0.,12.0,0.,12.0
1979-03-09 06:10:10.760 ,2,1,1.,12.0,0.,12.0,0.,12.0,0.,12.0
1979-03-09 06:10:22.760 ,3,1,1.,12.0,0.,12.0,0.,12.0,0.,12.0
1979-03-09 06:10:34.760 ,3,1,2.,12.0,0.,12.0,0.,12.0,0.,12.0
1979-03-09 06:10:46.760 ,4,1,2.,12.0,1.,12.0,0.,12.0,0.,12.0
1979-03-09 06:10:58.760 ,4,1,1.,12.0,0.,12.0,0.,12.0,0.,12.0
1979-03-09 06:11:10.760 ,5,1,0.,12.0,0.,12.0,0.,12.0,0.,12.0
1979-03-09 06:11:22.760 ,5,1,1.,12.0,1.,12.0,0.,12.0,0.,12.0
1979-03-09 06:11:34.760 ,6,1,2.,12.0,0.,12.0,0.,12.0,0.,12.0
1979-03-09 06:11:46.760 ,6,1,2.,12.0,0.,12.0,0.,12.0,0.,12.0
1979-03-09 06:11:58.760 ,7,1,0.,12.0,0.,12.0,0.,12.0,0.,12.0
1979-03-09 06:12:10.760 ,7,1,0.,12.0,0.,12.0,0.,12.0,0.,12.0
1979-03-09 06:12:22.760 ,7,1,0.,12.0,0.,12.0,0.,12.0,0.,12.0
1979-03-09 06:12:34.760 ,7,1,0.,12.0,0.,12.0,0.,12.0,0.,12.0
1979-03-09 06:12:46.760 ,6,1,0.,12.0,0.,12.0,0.,12.0,0.,12.0
1979-03-09 06:12:58.760 ,6,1,0.,12.0,0.,12.0,0.,12.0,0.,12.0
1979-03-09 06:13:10.760 ,5,1,0.,12.0,0.,12.0,0.,12.0,0.,12.0
1979-03-09 06:13:22.760 ,5,1,0.,12.0,0.,12.0,0.,12.0,0.,12.0
1979-03-09 06:13:34.760 ,4,1,2.,12.0,0.,12.0,0.,12.0,0.,12.0
1979-03-09 06:13:46.760 ,4,1,2.,12.0,0.,12.0,0.,12.0,0.,12.0
1979-03-09 06:13:58.760 ,3,1,2.,12.0,0.,12.0,0.,12.0,0.,12.0
1979-03-09 06:14:10.760 ,3,1,1.,12.0,0.,12.0,0.,12.0,0.,12.0
1979-03-09 06:14:22.760 ,2,1,1.,12.0,0.,12.0,0.,12.0,0.,12.0
1979-03-09 06:14:34.760 ,2,1,1.,12.0,0.,12.0,0.,12.0,0.,12.0
1979-03-09 06:14:46.760 ,1,1,0.,12.0,0.,12.0,0.,12.0,0.,12.0
1979-03-09 06:14:58.760 ,1,1,0.,12.0,0.,12.0,0.,12.0,0.,12.0
1979-03-09 06:15:10.760 ,0,1,1.,12.0,0.,12.0,0.,12.0,0.,12.0
1979-03-09 06:15:22.760 ,0,1,0.,12.0,0.,12.0,0.,12.0,0.,12.0
1979-03-09 06:15:34.760 ,0,1,0.,12.0,0.,12.0,0.,12.0,0.,12.0
1979-03-09 06:15:46.760 ,0,1,0.,12.0,0.,12.0,0.,12.0,0.,12.0
1979-03-09 06:15:58.760 ,1,1,0.,12.0,0.,12.0,0.,12.0,0.,12.0
1979-03-09 06:16:10.760 ,1,1,0.,12.0,0.,12.0,0.,12.0,0.,12.0
1979-03-09 06:16:22.760 ,2,1,0.,12.0,0.,12.0,0.,12.0,0.,12.0
1979-03-09 06:16:34.760 ,2,1,0.,12.0,0.,12.0,0.,12.0,0.,12.0
1979-03-09 06:16:46.760 ,3,1,1.,12.0,0.,12.0,0.,12.0,0.,12.0
1979-03-09 06:16:58.760 ,3,1,0.,12.0,0.,12.0,0.,12.0,0.,12.0
1979-03-09 06:17:10.760 ,4,1,1.,12.0,0.,12.0,0.,12.0,0.,12.0
1979-03-09 06:17:22.760 ,4,1,1.,12.0,0.,12.0,0.,12.0,0.,12.0
1979-03-09 06:17:34.760 ,5,1,0.,12.0,0.,12.0,0.,12.0,0.,12.0
1979-03-09 06:17:46.760 ,5,1,0.,12.0,0.,12.0,0.,12.0,0.,12.0
1979-03-09 06:17:58.760 ,6,1,2.,12.0,0.,12.0,0.,12.0,0.,12.0
1979-03-09 06:18:10.760 ,6,1,1.,12.0,0.,12.0,0.,12.0,0.,12.0
1979-03-09 06:18:22.760 ,7,1,1.,12.0,0.,12.0,0.,12.0,0.,12.0
1979-03-09 06:18:34.760 ,7,1,0.,12.0,0.,12.0,0.,12.0,0.,12.0
1979-03-09 06:18:46.760 ,7,1,0.,12.0,0.,12.0,0.,12.0,0.,12.0
1979-03-09 06:18:58.760 ,7,1,0.,12.0,0.,12.0,0.,12.0,0.,12.0
1979-03-09 06:19:10.760 ,6,1,0.,12.0,0.,12.0,0.,12.0,0.,12.0
1979-03-09 06:19:22.760 ,6,1,0.,12.0,0.,12.0,0.,12.0,0.,12.0
1979-03-09 06:19:34.760 ,5,1,0.,12.0,0.,12.0,0.,12.0,0.,12.0
1979-03-09 06:19:46.760 ,5,1,0.,12.0,0.,12.0,0.,12.0,0.,12.0
1979-03-09 06:19:58.760 ,4,1,1.,12.0,0.,12.0,0.,12.0,0.,12.0
1979-03-09 06:20:10.760 ,4,1,1.,12.0,1.,12.0,0.,12.0,0.,12.0
1979-03-09 06:20:22.760 ,3,1,1.,12.0,0.,12.0,0.,12.0,0.,12.0
1979-03-09 06:20:34.760 ,3,1,0.,12.0,0.,12.0,0.,12.0,0.,12.0
1979-03-09 06:20:46.760 ,2,1,0.,12.0,1.,12.0,0.,12.0,0.,12.0
1979-03-09 06:20:58.760 ,2,1,2.,12.0,0.,12.0,0.,12.0,0.,12.0
1979-03-09 06:21:10.760 ,1,1,0.,12.0,0.,12.0,0.,12.0,0.,12.0
1979-03-09 06:21:22.760 ,1,1,0.,12.0,0.,12.0,0.,12.0,0.,12.0
1979-03-09 06:21:34.760 ,0,1,0.,12.0,0.,12.0,0.,12.0,0.,12.0
1979-03-09 06:21:46.760 ,0,1,0.,12.0,0.,12.0,0.,12.0,0.,12.0
1979-03-09 06:21:58.760 ,0,1,0.,12.0,1.,12.0,0.,12.0,0.,12.0
1979-03-09 06:22:10.760 ,0,1,0.,12.0,0.,12.0,0.,12.0,0.,12.0
1979-03-09 06:22:22.760 ,1,1,0.,12.0,0.,12.0,0.,12.0,0.,12.0
1979-03-09 06:22:34.760 ,1,1,0.,12.0,0.,12.0,0.,12.0,0.,12.0
1979-03-09 06:22:46.760 ,2,1,0.,12.0,0.,12.0,0.,12.0,0.,12.0
1979-03-09 06:22:58.760 ,2,1,0.,12.0,0.,12.0,0.,12.0,0.,12.0
1979-03-09 06:23:10.760 ,3,1,0.,12.0,0.,12.0,0.,12.0,0.,12.0
1979-03-09 06:23:22.760 ,3,1,1.,12.0,1.,12.0,0.,12.0,0.,12.0
1979-03-09 06:23:34.760 ,4,1,1.,12.0,0.,12.0,0.,12.0,0.,12.0
1979-03-09 06:23:46.760 ,4,1,0.,12.0,0.,12.0,0.,12.0,0.,12.0
1979-03-09 06:23:58.760 ,5,1,2.,12.0,0.,12.0,0.,12.0,0.,12.0
1979-03-09 06:24:10.760 ,5,1,0.,12.0,0.,12.0,0.,12.0,0.,12.0
1979-03-09 06:24:22.760 ,6,1,0.,12.0,0.,12.0,0.,12.0,0.,12.0
1979-03-09 06:24:34.760 ,6,1,0.,12.0,0.,12.0,0.,12.0,0.,12.0
1979-03-09 06:24:46.760 ,7,1,1.,12.0,0.,12.0,0.,12.0,0.,12.0
1979-03-09 06:24:58.760 ,7,1,0.,12.0,0.,12.0,0.,12.0,0.,12.0
1979-03-09 06:25:10.760 ,7,1,0.,12.0,0.,12.0,0.,12.0,0.,12.0
1979-03-09 06:25:22.760 ,7,1,0.,12.0,0.,12.0,0.,12.0,0.,12.0
1979-03-09 06:25:34.760 ,6,1,0.,12.0,0.,12.0,0.,12.0,0.,12.0
1979-03-09 06:25:46.760 ,6,1,0.,12.0,0.,12.0,0.,12.0,0.,12.0
1979-03-09 06:25:58.760 ,5,1,1.,12.0,0.,12.0,0.,12.0,0.,12.0
1979-03-09 06:26:10.760 ,5,1,1.,12.0,0.,12.0,0.,12.0,0.,12.0
1979-03-09 06:26:22.760 ,4,1,0.,12.0,0.,12.0,0.,12.0,0.,12.0
1979-03-09 06:26:34.760 ,4,1,0.,12.0,1.,12.0,0.,12.0,0.,12.0
1979-03-09 06:26:46.760 ,3,1,1.,12.0,0.,12.0,0.,12.0,0.,12.0
1979-03-09 06:26:58.760 ,3,1,2.,12.0,0.,12.0,0.,12.0,0.,12.0
1979-03-09 06:27:10.760 ,2,1,1.,12.0,0.,12.0,0.,12.0,0.,12.0
1979-03-09 06:27:22.760 ,2,1,0.,12.0,0.,12.0,0.,12.0,0.,12.0
1979-03-09 06:27:34.760 ,1,1,1.,12.0,2.,12.0,0.,12.0,0.,12.0
1979-03-09 06:27:46.760 ,1,1,0.,12.0,0.,12.0,0.,12.0,0.,12.0
1979-03-09 06:27:58.760 ,0,1,0.,12.0,0.,12.0,0.,12.0,0.,12.0
1979-03-09 06:28:10.760 ,0,1,0.,12.0,0.,12.0,0.,12.0,0.,12.0
1979-03-09 06:28:22.760 ,0,1,0.,12.0,0.,12.0,0.,12.0,0.,12.0
1979-03-09 06:28:34.760 ,0,1,0.,12.0,0.,12.0,0.,12.0,0.,12.0
1979-03-09 06:28:46.760 ,1,1,0.,12.0,0.,12.0,0.,12.0,0.,12.0
1979-03-09 06:28:58.760 ,1,1,1.,12.0,0.,12.0,0.,12.0,0.,12.0
1979-03-09 06:29:10.760 ,2,1,0.,12.0,0.,12.0,0.,12.0,0.,12.0
1979-03-09 06:29:22.760 ,2,1,0.,12.0,0.,12.0,0.,12.0,0.,12.0
1979-03-09 06:29:34.760 ,3,1,1.,12.0,0.,12.0,0.,12.0,0.,12.0
1979-03-09 06:29:46.760 ,3,1,0.,12.0,0.,12.0,0.,12.0,0.,12.0
1979-03-09 06:29:58.760 ,4,1,2.,12.0,0.,12.0,0.,12.0,0.,12.0
1979-03-09 06:30:10.760 ,4,1,0.,12.0,0.,12.0,0.,12.0,0.,12.0
1979-03-09 06:30:22.760 ,5,1,1.,12.0,0.,12.0,0.,12.0,0.,12.0
1979-03-09 06:30:34.760 ,5,1,0.,12.0,0.,12.0,0.,12.0,0.,12.0
1979-03-09 06:30:46.760 ,6,1,1.,12.0,0.,12.0,0.,12.0,0.,12.0
1979-03-09 06:30:58.760 ,6,1,0.,12.0,0.,12.0,0.,12.0,0.,12.0
1979-03-09 06:31:10.760 ,7,1,1.,12.0,0.,12.0,0.,12.0,0.,12.0
1979-03-09 06:31:22.760 ,7,1,0.,12.0,0.,12.0,0.,12.0,0.,12.0
1979-03-09 06:31:34.760 ,7,1,0.,12.0,0.,12.0,0.,12.0,0.,12.0
1979-03-09 06:31:46.760 ,7,1,0.,12.0,0.,12.0,0.,12.0,0.,12.0
1979-03-09 06:31:58.760 ,6,1,0.,12.0,0.,12.0,0.,12.0,0.,12.0
1979-03-09 06:32:10.760 ,6,1,0.,12.0,0.,12.0,0.,12.0,0.,12.0
1979-03-09 06:32:22.760 ,5,1,0.,12.0,0.,12.0,0.,12.0,0.,12.0
1979-03-09 06:32:34.760 ,5,1,0.,12.0,0.,12.0,0.,12.0,0.,12.0
1979-03-09 06:32:46.760 ,4,1,1.,12.0,0.,12.0,0.,12.0,0.,12.0
1979-03-09 06:32:58.760 ,4,1,0.,12.0,0.,12.0,0.,12.0,0.,12.0
1979-03-09 06:33:10.760 ,3,1,3.,12.0,0.,12.0,0.,12.0,0.,12.0
1979-03-09 06:33:22.760 ,3,1,0.,12.0,0.,12.0,0.,12.0,0.,12.0
1979-03-09 06:33:34.760 ,2,1,1.,12.0,0.,12.0,0.,12.0,0.,12.0
1979-03-09 06:33:46.760 ,2,1,0.,12.0,0.,12.0,0.,12.0,0.,12.0
1979-03-09 06:33:58.760 ,1,1,1.,12.0,0.,12.0,0.,12.0,0.,12.0
1979-03-09 06:34:10.760 ,1,1,0.,12.0,0.,12.0,0.,12.0,0.,12.0
1979-03-09 06:34:22.760 ,0,1,0.,12.0,0.,12.0,0.,12.0,0.,12.0
1979-03-09 06:34:34.760 ,0,1,0.,12.0,0.,12.0,0.,12.0,0.,12.0
1979-03-09 06:34:46.760 ,0,1,0.,12.0,0.,12.0,0.,12.0,0.,12.0
1979-03-09 06:34:58.760 ,0,1,0.,12.0,0.,12.0,0.,12.0,0.,12.0
1979-03-09 06:35:10.760 ,1,1,0.,12.0,0.,12.0,0.,12.0,0.,12.0
1979-03-09 06:35:22.760 ,1,1,0.,12.0,0.,12.0,0.,12.0,0.,12.0
1979-03-09 06:35:34.760 ,2,1,0.,12.0,0.,12.0,0.,12.0,0.,12.0
1979-03-09 06:35:46.760 ,2,1,1.,12.0,0.,12.0,0.,12.0,0.,12.0
1979-03-09 06:35:58.760 ,3,1,0.,12.0,0.,12.0,0.,12.0,0.,12.0
1979-03-09 06:36:10.760 ,3,1,0.,12.0,0.,12.0,0.,12.0,0.,12.0
1979-03-09 06:36:22.760 ,4,1,1.,12.0,0.,12.0,0.,12.0,0.,12.0
1979-03-09 06:36:34.760 ,4,1,0.,12.0,0.,12.0,0.,12.0,0.,12.0
1979-03-09 06:36:46.760 ,5,1,0.,12.0,0.,12.0,0.,12.0,0.,12.0
1979-03-09 06:36:58.760 ,5,1,0.,12.0,0.,12.0,0.,12.0,0.,12.0
1979-03-09 06:37:10.760 ,6,1,0.,12.0,0.,12.0,0.,12.0,0.,12.0
1979-03-09 06:37:22.760 ,6,1,0.,12.0,0.,12.0,0.,12.0,0.,12.0
1979-03-09 06:37:34.760 ,7,1,0.,12.0,0.,12.0,0.,12.0,0.,12.0
1979-03-09 06:37:46.760 ,7,1,0.,12.0,0.,12.0,0.,12.0,0.,12.0
1979-03-09 06:37:58.760 ,7,1,0.,12.0,0.,12.0,0.,12.0,0.,12.0
1979-03-09 06:38:10.760 ,7,1,0.,12.0,0.,12.0,0.,12.0,0.,12.0
1979-03-09 06:38:22.760 ,6,1,0.,12.0,0.,12.0,0.,12.0,0.,12.0
1979-03-09 06:38:34.760 ,6,1,0.,12.0,0.,12.0,0.,12.0,0.,12.0
1979-03-09 06:38:46.760 ,5,1,0.,12.0,0.,12.0,0.,12.0,0.,12.0
1979-03-09 06:38:58.760 ,5,1,0.,12.0,0.,12.0,0.,12.0,0.,12.0
1979-03-09 06:39:10.760 ,2,1,0.,12.0,0.,12.0,0.,12.0,0.,12.0
1979-03-09 06:39:22.760 ,2,1,0.,12.0,0.,12.0,0.,12.0,0.,12.0
1979-03-09 06:39:34.760 ,1,1,0.,12.0,0.,12.0,0.,12.0,0.,12.0
1979-03-09 06:39:46.760 ,1,1,0.,12.0,0.,12.0,0.,12.0,0.,12.0
1979-03-09 06:39:58.760 ,5,1,0.,12.0,0.,12.0,0.,12.0,0.,12.0
1979-03-09 06:40:10.760 ,5,1,0.,12.0,0.,12.0,0.,12.0,0.,12.0
1979-03-09 06:40:22.760 ,6,1,0.,12.0,0.,12.0,0.,12.0,0.,12.0
1979-03-09 06:40:34.760 ,6,1,0.,12.0,0.,12.0,0.,12.0,0.,12.0
1979-03-09 06:40:46.770 ,2,1,0.,12.0,0.,12.0,0.,12.0,0.,12.0
1979-03-09 06:40:58.770 ,2,1,1.,12.0,0.,12.0,0.,12.0,0.,12.0
1979-03-09 06:41:10.770 ,1,1,0.,12.0,0.,12.0,0.,12.0,0.,12.0
1979-03-09 06:41:22.770 ,1,1,0.,12.0,0.,12.0,0.,12.0,0.,12.0
1979-03-09 06:41:34.770 ,5,1,0.,12.0,0.,12.0,0.,12.0,0.,12.0
1979-03-09 06:41:46.770 ,5,1,1.,12.0,0.,12.0,0.,12.0,0.,12.0
1979-03-09 06:41:58.770 ,6,1,0.,12.0,0.,12.0,0.,12.0,0.,12.0
1979-03-09 06:42:10.770 ,6,1,0.,12.0,0.,12.0,0.,12.0,0.,12.0
1979-03-09 06:42:22.770 ,2,1,0.,12.0,0.,12.0,0.,12.0,0.,12.0
1979-03-09 06:42:34.770 ,2,1,0.,12.0,0.,12.0,0.,12.0,0.,12.0
1979-03-09 06:42:46.770 ,1,1,0.,12.0,0.,12.0,0.,12.0,0.,12.0
1979-03-09 06:42:58.770 ,1,1,0.,12.0,0.,12.0,0.,12.0,0.,12.0
1979-03-09 06:43:10.770 ,5,1,0.,12.0,0.,12.0,0.,12.0,0.,12.0
1979-03-09 06:43:22.770 ,5,1,0.,12.0,0.,12.0,0.,12.0,0.,12.0
1979-03-09 06:43:34.770 ,6,1,0.,12.0,0.,12.0,0.,12.0,0.,12.0
1979-03-09 06:43:46.770 ,6,1,0.,12.0,0.,12.0,0.,12.0,0.,12.0
1979-03-09 06:43:58.770 ,4,1,0.,12.0,0.,12.0,0.,12.0,0.,12.0
1979-03-09 06:44:10.770 ,4,1,,0,,0,,0,,0
1979-03-09 06:44:22.770 ,1,1,0.,12.0,0.,12.0,0.,12.0,0.,12.0
1979-03-09 06:44:34.770 ,1,1,0.,12.0,0.,12.0,0.,12.0,0.,12.0
1979-03-09 06:44:46.770 ,5,1,1.,12.0,0.,12.0,0.,12.0,0.,12.0
1979-03-09 06:44:58.770 ,5,1,0.,12.0,0.,12.0,0.,12.0,0.,12.0
1979-03-09 06:45:10.770 ,6,1,0.,12.0,0.,12.0,0.,12.0,0.,12.0
1979-03-09 06:45:22.770 ,6,1,0.,12.0,0.,12.0,0.,12.0,0.,12.0
1979-03-09 06:45:34.770 ,2,1,3.,12.0,0.,12.0,0.,12.0,0.,12.0
1979-03-09 06:45:46.770 ,2,1,0.,12.0,0.,12.0,0.,12.0,0.,12.0
1979-03-09 06:45:58.770 ,1,1,0.,12.0,0.,12.0,0.,12.0,0.,12.0
1979-03-09 06:46:10.770 ,1,1,0.,12.0,0.,12.0,0.,12.0,0.,12.0
1979-03-09 06:46:22.770 ,5,1,0.,12.0,0.,12.0,0.,12.0,0.,12.0
1979-03-09 06:46:34.770 ,5,1,0.,12.0,0.,12.0,0.,12.0,0.,12.0
1979-03-09 06:46:46.770 ,6,1,1.,12.0,0.,12.0,0.,12.0,0.,12.0
1979-03-09 06:46:58.770 ,6,1,0.,12.0,0.,12.0,0.,12.0,0.,12.0
1979-03-09 06:47:10.770 ,2,1,0.,12.0,0.,12.0,0.,12.0,0.,12.0
1979-03-09 06:47:22.770 ,2,1,0.,12.0,0.,12.0,0.,12.0,0.,12.0
1979-03-09 06:47:34.770 ,1,1,0.,12.0,0.,12.0,0.,12.0,0.,12.0
1979-03-09 06:47:46.770 ,1,1,0.,12.0,0.,12.0,0.,12.0,0.,12.0
1979-03-09 06:47:58.770 ,5,1,0.,12.0,0.,12.0,0.,12.0,0.,12.0
1979-03-09 06:48:10.770 ,5,1,0.,12.0,0.,12.0,0.,12.0,0.,12.0
1979-03-09 06:48:22.770 ,6,1,0.,12.0,0.,12.0,0.,12.0,0.,12.0
1979-03-09 06:48:34.770 ,6,1,0.,12.0,0.,12.0,0.,12.0,0.,12.0
1979-03-09 06:48:46.770 ,2,1,0.,12.0,0.,12.0,0.,12.0,0.,12.0
1979-03-09 06:48:58.770 ,2,1,0.,12.0,1.,12.0,0.,12.0,0.,12.0
1979-03-09 06:49:10.770 ,1,1,0.,12.0,0.,12.0,0.,12.0,0.,12.0
1979-03-09 06:49:22.770 ,1,1,0.,12.0,0.,12.0,0.,12.0,0.,12.0
1979-03-09 06:49:34.770 ,5,1,0.,12.0,0.,12.0,0.,12.0,0.,12.0
1979-03-09 06:49:46.770 ,5,1,0.,12.0,0.,12.0,0.,12.0,0.,12.0
1979-03-09 06:49:58.770 ,6,1,0.,12.0,0.,12.0,0.,12.0,0.,12.0
1979-03-09 06:50:10.770 ,6,1,0.,12.0,0.,12.0,0.,12.0,0.,12.0
1979-03-09 06:50:22.770 ,2,1,0.,12.0,0.,12.0,0.,12.0,0.,12.0
1979-03-09 06:50:34.770 ,2,1,0.,12.0,1.,12.0,0.,12.0,0.,12.0
1979-03-09 06:50:46.770 ,1,1,0.,12.0,0.,12.0,0.,12.0,0.,12.0
1979-03-09 06:50:58.770 ,1,1,0.,12.0,0.,12.0,0.,12.0,0.,12.0
1979-03-09 06:51:10.770 ,5,1,1.,12.0,0.,12.0,0.,12.0,0.,12.0
1979-03-09 06:51:22.770 ,5,1,1.,12.0,0.,12.0,0.,12.0,0.,12.0
1979-03-09 06:51:34.770 ,6,1,0.,12.0,0.,12.0,0.,12.0,0.,12.0
1979-03-09 06:51:46.770 ,6,1,0.,12.0,0.,12.0,0.,12.0,0.,12.0
1979-03-09 06:51:58.770 ,2,1,0.,12.0,0.,12.0,0.,12.0,0.,12.0
1979-03-09 06:52:10.770 ,2,1,1.,12.0,0.,12.0,0.,12.0,0.,12.0
1979-03-09 06:52:22.770 ,1,1,0.,12.0,0.,12.0,0.,12.0,0.,12.0
1979-03-09 06:52:34.770 ,1,1,0.,12.0,0.,12.0,0.,12.0,0.,12.0
1979-03-09 06:52:46.770 ,5,1,0.,12.0,0.,12.0,0.,12.0,0.,12.0
1979-03-09 06:52:58.770 ,5,1,1.,12.0,0.,12.0,0.,12.0,0.,12.0
1979-03-09 06:53:10.770 ,6,1,0.,12.0,0.,12.0,0.,12.0,0.,12.0
1979-03-09 06:53:22.770 ,6,1,0.,12.0,0.,12.0,0.,12.0,0.,12.0
1979-03-09 06:53:34.770 ,2,1,0.,12.0,0.,12.0,0.,12.0,0.,12.0
1979-03-09 06:53:46.770 ,2,1,0.,12.0,0.,12.0,0.,12.0,0.,12.0
1979-03-09 06:53:58.770 ,1,1,0.,12.0,0.,12.0,0.,12.0,0.,12.0
1979-03-09 06:54:10.770 ,1,1,0.,12.0,0.,12.0,0.,12.0,0.,12.0
1979-03-09 06:54:22.770 ,5,1,1.,12.0,0.,12.0,0.,12.0,0.,12.0
1979-03-09 06:54:34.770 ,5,1,0.,12.0,0.,12.0,0.,12.0,0.,12.0
1979-03-09 06:54:46.770 ,6,1,2.,12.0,0.,12.0,0.,12.0,0.,12.0
1979-03-09 06:54:58.770 ,6,1,0.,12.0,0.,12.0,0.,12.0,0.,12.0
1979-03-09 06:55:10.770 ,2,1,1.,12.0,0.,12.0,0.,12.0,0.,12.0
1979-03-09 06:55:22.770 ,2,1,1.,12.0,0.,12.0,0.,12.0,0.,12.0
1979-03-09 06:55:34.770 ,1,1,0.,12.0,0.,12.0,0.,12.0,0.,12.0
1979-03-09 06:55:46.770 ,1,1,0.,12.0,0.,12.0,0.,12.0,0.,12.0
1979-03-09 06:55:58.770 ,5,1,0.,12.0,0.,12.0,0.,12.0,0.,12.0
1979-03-09 06:56:10.770 ,5,1,0.,12.0,0.,12.0,0.,12.0,0.,12.0
1979-03-09 06:56:22.770 ,6,1,0.,12.0,0.,12.0,0.,12.0,0.,12.0
1979-03-09 06:56:34.770 ,6,1,1.,12.0,0.,12.0,0.,12.0,0.,12.0
1979-03-09 06:56:46.770 ,2,1,0.,12.0,0.,12.0,0.,12.0,0.,12.0
1979-03-09 06:56:58.770 ,2,1,1.,12.0,0.,12.0,0.,12.0,0.,12.0
1979-03-09 06:57:10.770 ,1,1,1.,12.0,0.,12.0,0.,12.0,0.,12.0
1979-03-09 06:57:22.770 ,1,1,0.,12.0,0.,12.0,0.,12.0,0.,12.0
1979-03-09 06:57:34.770 ,5,1,0.,12.0,0.,12.0,0.,12.0,0.,12.0
1979-03-09 06:57:46.770 ,5,1,0.,12.0,0.,12.0,0.,12.0,0.,12.0
1979-03-09 06:57:58.770 ,6,1,0.,12.0,0.,12.0,0.,12.0,0.,12.0
1979-03-09 06:58:10.770 ,6,1,0.,12.0,0.,12.0,0.,12.0,0.,12.0
1979-03-09 06:58:22.770 ,2,1,0.,12.0,0.,12.0,0.,12.0,0.,12.0
1979-03-09 06:58:34.770 ,2,1,0.,12.0,0.,12.0,0.,12.0,0.,12.0
1979-03-09 06:58:46.770 ,1,1,0.,12.0,0.,12.0,0.,12.0,0.,12.0
1979-03-09 06:58:58.770 ,1,1,0.,12.0,0.,12.0,0.,12.0,0.,12.0
1979-03-09 06:59:10.770 ,5,1,1.,12.0,0.,12.0,0.,12.0,0.,12.0
1979-03-09 06:59:22.770 ,5,1,1.,12.0,0.,12.0,0.,12.0,0.,12.0
1979-03-09 06:59:34.770 ,6,1,0.,12.0,0.,12.0,0.,12.0,0.,12.0
1979-03-09 06:59:46.770 ,6,1,0.,12.0,0.,12.0,0.,12.0,0.,12.0
1979-03-09 06:59:58.770 ,2,1,0.,12.0,0.,12.0,0.,12.0,0.,12.0
1979-03-09 07:00:10.770 ,2,1,0.,12.0,0.,12.0,0.,12.0,0.,12.0
1979-03-09 07:00:22.770 ,1,1,0.,12.0,0.,12.0,0.,12.0,0.,12.0
1979-03-09 07:00:34.770 ,1,1,0.,12.0,0.,12.0,0.,12.0,0.,12.0
1979-03-09 07:00:46.770 ,5,1,0.,12.0,0.,12.0,0.,12.0,0.,12.0
1979-03-09 07:00:58.770 ,5,1,0.,12.0,0.,12.0,0.,12.0,0.,12.0
1979-03-09 07:01:10.770 ,6,1,0.,12.0,0.,12.0,0.,12.0,0.,12.0
1979-03-09 07:01:22.770 ,6,1,0.,12.0,0.,12.0,0.,12.0,0.,12.0
1979-03-09 07:01:34.770 ,2,1,1.,12.0,0.,12.0,0.,12.0,0.,12.0
1979-03-09 07:01:46.770 ,2,1,0.,12.0,0.,12.0,0.,12.0,0.,12.0
1979-03-09 07:01:58.770 ,1,1,0.,12.0,0.,12.0,0.,12.0,0.,12.0
1979-03-09 07:02:10.770 ,1,1,0.,12.0,0.,12.0,0.,12.0,0.,12.0
1979-03-09 07:02:22.770 ,5,1,0.,12.0,0.,12.0,0.,12.0,0.,12.0
1979-03-09 07:02:34.770 ,5,1,1.,12.0,0.,12.0,0.,12.0,0.,12.0
1979-03-09 07:02:46.770 ,6,1,0.,12.0,0.,12.0,0.,12.0,0.,12.0
1979-03-09 07:02:58.770 ,6,1,0.,12.0,0.,12.0,0.,12.0,0.,12.0
1979-03-09 07:03:10.770 ,2,1,0.,12.0,0.,12.0,0.,12.0,0.,12.0
1979-03-09 07:03:22.770 ,2,1,0.,12.0,0.,12.0,0.,12.0,0.,12.0
1979-03-09 07:03:34.770 ,1,1,0.,12.0,0.,12.0,0.,12.0,0.,12.0
1979-03-09 07:03:46.770 ,1,1,0.,12.0,0.,12.0,0.,12.0,0.,12.0
1979-03-09 07:03:58.770 ,5,1,0.,12.0,0.,12.0,0.,12.0,0.,12.0
1979-03-09 07:04:10.770 ,5,1,0.,12.0,0.,12.0,0.,12.0,0.,12.0
1979-03-09 07:04:22.770 ,6,1,0.,12.0,0.,12.0,0.,12.0,0.,12.0
1979-03-09 07:04:34.770 ,6,1,0.,12.0,0.,12.0,0.,12.0,0.,12.0
1979-03-09 07:04:46.770 ,2,1,0.,12.0,0.,12.0,0.,12.0,0.,12.0
1979-03-09 07:04:58.770 ,2,1,0.,12.0,0.,12.0,0.,12.0,0.,12.0
1979-03-09 07:05:10.770 ,1,1,0.,12.0,0.,12.0,0.,12.0,0.,12.0
1979-03-09 07:05:22.770 ,1,1,0.,12.0,0.,12.0,0.,12.0,0.,12.0
1979-03-09 07:05:34.770 ,5,1,1.,12.0,0.,12.0,0.,12.0,0.,12.0
1979-03-09 07:05:46.770 ,5,1,0.,12.0,0.,12.0,0.,12.0,0.,12.0
1979-03-09 07:05:58.770 ,6,1,0.,12.0,0.,12.0,0.,12.0,0.,12.0
1979-03-09 07:06:10.770 ,6,1,0.,12.0,0.,12.0,0.,12.0,0.,12.0
1979-03-09 07:06:22.770 ,2,1,0.,12.0,0.,12.0,0.,12.0,0.,12.0
1979-03-09 07:06:34.770 ,2,1,0.,12.0,0.,12.0,0.,12.0,0.,12.0
1979-03-09 07:06:46.770 ,1,1,0.,12.0,0.,12.0,0.,12.0,0.,12.0
1979-03-09 07:06:58.770 ,1,1,0.,12.0,0.,12.0,0.,12.0,0.,12.0
1979-03-09 07:07:10.770 ,5,1,0.,12.0,0.,12.0,0.,12.0,0.,12.0
1979-03-09 07:07:22.770 ,5,1,0.,12.0,0.,12.0,0.,12.0,0.,12.0
1979-03-09 07:07:34.770 ,6,1,0.,12.0,0.,12.0,0.,12.0,0.,12.0
1979-03-09 07:07:46.770 ,6,1,0.,12.0,0.,12.0,0.,12.0,0.,12.0
1979-03-09 07:07:58.770 ,2,1,0.,12.0,0.,12.0,0.,12.0,0.,12.0
1979-03-09 07:08:10.770 ,2,1,0.,12.0,0.,12.0,0.,12.0,0.,12.0
1979-03-09 07:08:22.770 ,1,1,0.,12.0,0.,12.0,0.,12.0,0.,12.0
1979-03-09 07:08:34.770 ,1,1,0.,12.0,0.,12.0,0.,12.0,0.,12.0
1979-03-09 07:08:46.770 ,5,1,0.,12.0,0.,12.0,0.,12.0,0.,12.0
1979-03-09 07:08:58.770 ,5,1,0.,12.0,0.,12.0,0.,12.0,0.,12.0
1979-03-09 07:09:10.770 ,6,1,0.,12.0,0.,12.0,0.,12.0,0.,12.0
1979-03-09 07:09:22.770 ,6,1,0.,12.0,0.,12.0,0.,12.0,0.,12.0
1979-03-09 07:09:34.770 ,2,1,0.,12.0,0.,12.0,0.,12.0,0.,12.0
1979-03-09 07:09:46.770 ,2,1,0.,12.0,0.,12.0,0.,12.0,0.,12.0
1979-03-09 07:09:58.770 ,1,1,0.,12.0,0.,12.0,0.,12.0,0.,12.0
1979-03-09 07:10:10.770 ,1,1,0.,12.0,0.,12.0,0.,12.0,0.,12.0
1979-03-09 07:10:22.770 ,5,1,0.,12.0,0.,12.0,0.,12.0,0.,12.0
1979-03-09 07:10:34.770 ,5,1,0.,12.0,0.,12.0,0.,12.0,0.,12.0
1979-03-09 07:10:46.770 ,6,1,0.,12.0,0.,12.0,0.,12.0,0.,12.0
1979-03-09 07:10:58.770 ,6,1,0.,12.0,0.,12.0,0.,12.0,0.,12.0
1979-03-09 07:11:10.770 ,2,1,0.,12.0,0.,12.0,0.,12.0,0.,12.0
1979-03-09 07:11:22.770 ,2,1,0.,12.0,0.,12.0,0.,12.0,0.,12.0
1979-03-09 07:11:34.770 ,1,1,0.,12.0,0.,12.0,0.,12.0,0.,12.0
1979-03-09 07:11:46.770 ,1,1,0.,12.0,0.,12.0,0.,12.0,0.,12.0
1979-03-09 07:11:58.770 ,5,1,0.,12.0,0.,12.0,0.,12.0,0.,12.0
1979-03-09 07:12:10.770 ,5,1,0.,12.0,0.,12.0,0.,12.0,0.,12.0
1979-03-09 07:12:22.770 ,6,1,0.,12.0,0.,12.0,0.,12.0,0.,12.0
1979-03-09 07:12:34.770 ,6,1,0.,12.0,0.,12.0,0.,12.0,0.,12.0
1979-03-09 07:12:46.770 ,2,1,0.,12.0,0.,12.0,0.,12.0,0.,12.0
1979-03-09 07:12:58.770 ,2,1,0.,12.0,0.,12.0,0.,12.0,0.,12.0
1979-03-09 07:13:10.770 ,1,1,0.,12.0,0.,12.0,0.,12.0,0.,12.0
1979-03-09 07:13:22.770 ,1,1,0.,12.0,0.,12.0,0.,12.0,0.,12.0
1979-03-09 07:13:34.770 ,5,1,0.,12.0,0.,12.0,0.,12.0,0.,12.0
1979-03-09 07:13:46.770 ,5,1,0.,12.0,0.,12.0,0.,12.0,0.,12.0
1979-03-09 07:13:58.770 ,6,1,0.,12.0,0.,12.0,0.,12.0,0.,12.0
1979-03-09 07:14:10.770 ,6,1,0.,12.0,0.,12.0,0.,12.0,0.,12.0
1979-03-09 07:14:22.770 ,2,1,0.,12.0,0.,12.0,0.,12.0,0.,12.0
1979-03-09 07:14:34.770 ,2,1,0.,12.0,0.,12.0,0.,12.0,0.,12.0
1979-03-09 07:14:46.770 ,1,1,0.,12.0,0.,12.0,0.,12.0,0.,12.0
1979-03-09 07:14:58.770 ,1,1,0.,12.0,0.,12.0,0.,12.0,0.,12.0
1979-03-09 07:15:10.770 ,5,1,0.,12.0,0.,12.0,0.,12.0,0.,12.0
1979-03-09 07:15:22.770 ,5,1,0.,12.0,0.,12.0,0.,12.0,0.,12.0
1979-03-09 07:15:34.770 ,6,1,0.,12.0,0.,12.0,0.,12.0,0.,12.0
1979-03-09 07:15:46.770 ,6,1,0.,12.0,0.,12.0,0.,12.0,0.,12.0
1979-03-09 07:15:58.770 ,2,1,0.,12.0,0.,12.0,0.,12.0,0.,12.0
1979-03-09 07:16:10.770 ,2,1,1.,12.0,0.,12.0,0.,12.0,0.,12.0
1979-03-09 07:16:22.770 ,1,1,0.,12.0,0.,12.0,0.,12.0,0.,12.0
1979-03-09 07:16:34.770 ,1,1,0.,12.0,0.,12.0,0.,12.0,0.,12.0
1979-03-09 07:16:46.770 ,5,1,0.,12.0,0.,12.0,0.,12.0,0.,12.0
1979-03-09 07:16:58.770 ,5,1,0.,12.0,0.,12.0,0.,12.0,0.,12.0
1979-03-09 07:17:10.770 ,6,1,0.,12.0,0.,12.0,0.,12.0,0.,12.0
1979-03-09 07:17:22.770 ,6,1,0.,12.0,0.,12.0,0.,12.0,0.,12.0